User: anonymous   Login
Location: Ab? ar R?sh Ba?r?
(24.1861°N, 32.8847°E)
Time: 11:06:44
(UTC+00:00)
Language:

DELTA 2 R/B (1) - Orbit

View from above orbital plane
View from above orbital plane
View from above satellite
View from above satellite

Ground track
Ground track

The orbit data is extracted from the following two-line orbital elements,

1 27665U 03005C   22021.90909416  .00000008  00000-0  36774-4 0  9998
2 27665  39.5740 196.5641 0008238  17.9936 104.4662 14.28578331991097
Epoch (UTC): 21 January 2022 21:49:05
Eccentricity: 0.0008238
inclination: 39.5740°
perigee height: 790 km
apogee height: 802 km
right ascension of ascending node: 196.5641°
argument of perigee: 17.9936°
revolutions per day: 14.28578331
mean anomaly at epoch: 104.4662°
orbit number at epoch: 99109

The dashed part of the orbit path shows where the satellite is in the earth's shadow,  

DLR